This demonstration page uses our WeatherBlox Daily Observations layout. Learn more.

Left ArrowRight Arrow

39.51506, -84.39828

Hourly Observations for May 1, 2018

Temp ( °F °C ) Dew Point ( °F °C ) Humidity (%) Winds ( mph kmh ) Pressure ( in mb ) Visibility ( mi km ) Precip ( " mm )
12:15 am 00:15 Clear 44 6.7 38 3.5 80 80 N N/A 30.15 1021 10 16 N/A
12:35 am 00:35 Clear 43 6.2 38 3.5 83 83 N N/A 30.15 1021 10 16 N/A
12:55 am 00:55 Clear 43 6.3 38 3.6 83 83 N N/A 30.15 1021 10 16 N/A
1:15 am 01:15 Clear 43 6.2 39 3.7 84 84 N N/A 30.15 1021 10 16 N/A
1:35 am 01:35 Clear 43 6 39 3.8 86 86 N N/A 30.15 1021 10 16 N/A
1:55 am 01:55 Clear 42 5.5 39 3.7 88 88 N N/A 30.15 1021 10 16 N/A
2:15 am 02:15 Clear 42 5.5 39 3.9 90 90 N N/A 30.15 1021 10 16 N/A
2:35 am 02:35 Clear 41 5.2 39 4 92 92 N N/A 30.12 1020 10 16 N/A
2:55 am 02:55 Clear 41 5 38 3.5 90 90 N N/A 30.12 1020 10 16 N/A
3:15 am 03:15 Clear 40 4.6 38 3.1 90 90 N N/A 30.15 1021 10 16 N/A
3:35 am 03:35 Clear 41 4.9 38 3.3 90 90 N N/A 30.12 1020 10 16 N/A
3:55 am 03:55 Clear 40 4.6 38 3.3 91 91 N N/A 30.18 1022 10 16 N/A
4:15 am 04:15 Clear 40 4.2 37 3 92 92 N N/A 30.18 1022 10 16 N/A
4:35 am 04:35 Clear 39 4.1 37 2.8 91 91 N N/A 30.18 1022 10 16 N/A
4:55 am 04:55 Clear 39 3.7 37 2.7 93 93 N N/A 30.18 1022 10 16 N/A
5:15 am 05:15 Clear 38 3.6 37 2.5 93 93 N N/A 30.18 1022 10 16 N/A
5:35 am 05:35 Clear 39 3.7 36 2.4 91 91 N N/A 30.18 1022 10 16 N/A
5:55 am 05:55 Clear 38 3.5 37 2.6 94 94 N N/A 30.18 1022 10 16 N/A
6:15 am 06:15 Clear 38 3.3 37 2.5 95 95 N N/A 30.18 1022 10 16 N/A
6:35 am 06:35 Clear 38 3.3 37 2.6 95 95 N N/A 30.21 1023 10 16 N/A
6:55 am 06:55 Sunny 38 3.1 36 2.3 95 95 N N/A 30.21 1023 10 16 N/A
7:15 am 07:15 Sunny 39 3.7 37 2.5 92 92 N N/A 30.21 1023 10 16 N/A
7:35 am 07:35 Sunny 40 4.5 38 3.5 93 93 N N/A 30.21 1023 10 16 N/A
7:55 am 07:55 Sunny 43 6 40 4.5 90 90 N N/A 30.18 1022 10 16 N/A
8:15 am 08:15 Sunny 46 7.7 42 5.4 86 86 N N/A 30.21 1023 10 16 N/A
8:35 am 08:35 Sunny 50 9.9 44 6.4 79 79 N N/A 30.21 1023 10 16 N/A
8:55 am 08:55 Sunny 54 12.1 43 6.2 67 67 N N/A 30.21 1023 10 16 N/A
9:10 am 09:10 Sunny 56 13.5 43 5.9 60 60 N N/A 30.21 1023 10 16 N/A
9:35 am 09:35 Sunny 60 15.3 41 4.8 50 50 SW 6 9 30.21 1023 10 16 N/A
9:55 am 09:55 Sunny 62 16.9 40 4.5 44 44 SW 7 11 30.21 1023 10 16 N/A
10:15 am 10:15 Sunny 64 17.9 41 4.9 42 42 SSW 7 11 30.15 1021 10 16 N/A
10:35 am 10:35 Sunny 66 19 42 5.5 41 41 SSW 9 15 30.15 1021 10 16 N/A
10:55 am 10:55 Sunny 68 20.1 42 5.3 38 38 SSW 8 13 30.15 1021 10 16 N/A
11:15 am 11:15 Sunny 70 20.9 41 5.2 36 36 SSW 9 15 30.15 1021 10 16 N/A
11:35 am 11:35 Sunny 71 21.5 41 5.2 35 35 S 7 11 30.15 1021 10 16 N/A
11:55 am 11:55 Sunny 72 22.3 42 5.6 34 34 S 12 19 30.15 1021 10 16 N/A
12:15 pm 12:15 Sunny 74 23.1 43 6.2 34 34 S 12 19 30.15 1021 10 16 N/A
12:35 pm 12:35 Sunny 75 23.8 44 6.7 33 33 SW 15 24 30.15 1021 10 16 N/A
12:55 pm 12:55 Sunny 76 24.4 44 6.9 33 33 SSW 10 17 30.15 1021 10 16 N/A
1:15 pm 13:15 Sunny 76 24.3 43 6.1 31 31 SSW 10 17 30.12 1020 10 16 N/A
1:35 pm 13:35 Sunny 77 24.8 44 6.6 31 31 S 14 22 30.12 1020 10 16 N/A
1:55 pm 13:55 Sunny 77 25.2 43 6.2 30 30 SSW 13 20 30.12 1020 10 16 N/A
2:15 pm 14:15 Sunny 78 25.5 45 7.2 31 31 SW 13 20 30.12 1020 10 16 N/A
2:35 pm 14:35 Sunny 79 25.9 41 5.1 26 26 SW 13 20 30.12 1020 10 16 N/A
2:55 pm 14:55 Sunny 79 26.2 41 5 26 26 SW 12 19 30.12 1020 10 16 N/A
3:15 pm 15:15 Sunny 80 26.5 40 4.7 25 25 SW 14 22 30.09 1019 10 16 N/A
3:35 pm 15:35 Sunny 80 26.7 40 4.6 24 24 S 13 20 30.09 1019 10 16 N/A
3:55 pm 15:55 Sunny 81 27.1 37 2.8 21 21 SW 16 26 30.09 1019 10 16 N/A
4:15 pm 16:15 Sunny 81 27 39 4 23 23 SW 14 22 30.09 1019 10 16 N/A
4:35 pm 16:35 Sunny 80 26.9 40 4.4 24 24 SW 13 20 30.09 1019 10 16 N/A
4:55 pm 16:55 Sunny 80 26.8 40 4.3 24 24 SSW 13 20 30.06 1018 10 16 N/A
5:15 pm 17:15 Sunny 81 27 44 6.8 28 28 SSW 13 20 30.06 1018 10 16 N/A
5:35 pm 17:35 Sunny 81 27.1 43 6.3 27 27 SW 14 22 30.06 1018 10 16 N/A
5:55 pm 17:55 Sunny 80 26.6 39 4.1 24 24 SW 12 19 30.06 1018 10 16 N/A
6:15 pm 18:15 Sunny 80 26.6 43 5.9 27 27 SSW 14 22 30.06 1018 10 16 N/A
6:35 pm 18:35 Sunny 79 26.2 41 4.9 25 25 SSW 15 24 30.06 1018 10 16 N/A
6:55 pm 18:55 Sunny 79 26 41 4.8 26 26 SSW 9 15 30.06 1018 10 16 N/A
7:15 pm 19:15 Sunny 78 25.4 42 5.3 27 27 SSW 10 17 30.06 1018 10 16 N/A
7:35 pm 19:35 Sunny 76 24.2 42 5.7 30 30 SSW 12 19 30.06 1018 10 16 N/A
7:55 pm 19:55 Sunny 66 18.9 35 1.8 32 32 SW 6 9 30.12 1020 10 16 N/A
8:15 pm 20:15 Sunny 70 21.2 44 6.7 39 39 SW 9 15 30.06 1018 10 16 N/A
8:35 pm 20:35 Clear 69 20.3 44 6.8 42 42 SSW 7 11 30.06 1018 10 16 N/A
8:55 pm 20:55 Clear 69 20.5 43 6.3 40 40 SSW 7 11 30.06 1018 10 16 N/A
9:15 pm 21:15 Clear 65 18.4 45 7.3 49 49 SSW 5 7 30.06 1018 10 16 N/A
9:35 pm 21:35 Clear 64 17.5 46 7.8 53 53 SW 5 7 30.06 1018 10 16 N/A
9:55 pm 21:55 Clear 61 16.2 47 8.2 59 59 SW 6 9 30.06 1018 10 16 N/A
10:15 pm 22:15 Clear 62 16.6 45 7.3 54 54 SW 6 9 30.06 1018 10 16 N/A
10:35 pm 22:35 Clear 60 15.7 47 8.2 61 61 SW 6 9 30.09 1019 10 16 N/A
10:55 pm 22:55 Clear 59 14.9 47 8.2 64 64 SSW 6 9 30.09 1019 10 16 N/A
11:15 pm 23:15 Clear 59 15.1 46 8 63 63 SW 6 9 30.09 1019 10 16 N/A
11:35 pm 23:35 Clear 60 15.8 46 7.7 59 59 SW 5 7 30.09 1019 10 16 N/A
11:55 pm 23:55 Clear 59 15.1 45 7.4 60 60 SW 5 7 30.09 1019 10 16 N/A

Powered by AerisWeather